Location: Alessandria
(44.9000°N, 8.6170°E)
Time: 17:54:35
(UTC+02:00)

ISS - Pass Details

Date: 17 May 2021
Orbit: 417 x 422 km, 51.6° (Epoch: 18 June)

Event Time Altitude Azimuth Distance (km) Brightness Sun altitude
Rises 23:38:59 0° 276° (W) 2,364 0.5 -21.4°
Reaches altitude 10° 23:41:17 10° 289° (WNW) 1,502 -0.4 -21.6°
Maximum altitude 23:44:15 28° 350° (N) 829 -1.6 -21.8°
Drops below altitude 10° 23:47:13 10° 52° (NE) 1,507 -0.8 -22.0°
Enters shadow 23:49:29 - 64° (ENE) 2,359 0.1 -22.2°
